This is the latest recevied weather packets stored in our database for station/object KC8ZBC. If no packets are shown the sender has not sent any weather packets the latest 10 day(s).
| Time | Temp. | Humidity | Pressure | Rain* | Wind** | Luminosity | Snow |
|---|---|---|---|---|---|---|---|
| 1777759235 | 8.33° C | 46% | 990.7 hPa | 0 mm | - | 94 W/m² | - |
| 1777758932 | 7.78° C | 47% | 990.7 hPa | 0 mm | - | 83 W/m² | - |
| 1777758629 | 7.78° C | 45% | 990.8 hPa | 0 mm | - | 72 W/m² | - |
| 1777758326 | 7.78° C | 45% | 990.8 hPa | 0 mm | - | 73 W/m² | - |
| 1777758023 | 7.78° C | 45% | 990.8 hPa | 0 mm | - | 71 W/m² | - |
| 1777757719 | 7.78° C | 46% | 990.7 hPa | 0 mm | - | 69 W/m² | - |
| 1777757418 | 7.78° C | 45% | 990.6 hPa | 0 mm | - | 83 W/m² | - |
| 1777757116 | 7.78° C | 46% | 990.6 hPa | 0 mm | - | 92 W/m² | - |
| 1777756813 | 7.78° C | 47% | 990.7 hPa | 0 mm | - | 97 W/m² | - |
| 1777756509 | 7.78° C | 47% | 990.8 hPa | 0 mm | - | 94 W/m² | - |
| 1777756206 | 7.78° C | 45% | 990.7 hPa | 0 mm | - | 81 W/m² | - |
| 1777755903 | 7.78° C | 44% | 990.7 hPa | 0 mm | - | 86 W/m² | - |
| 1777755600 | 7.78° C | 46% | 990.8 hPa | 0 mm | - | 113 W/m² | - |
| 1777755296 | 7.22° C | 48% | 990.9 hPa | 0 mm | - | 95 W/m² | - |
| 1777754994 | 7.22° C | 47% | 990.9 hPa | 0 mm | - | 64 W/m² | - |
| 1777754690 | 7.22° C | 47% | 990.9 hPa | 0 mm | - | 64 W/m² | - |
| 1777754388 | 7.78° C | 47% | 991.1 hPa | 0 mm | - | 83 W/m² | - |
| 1777754085 | 7.78° C | 47% | 990.8 hPa | 0 mm | - | 98 W/m² | - |
| 1777753782 | 7.78° C | 48% | 991.1 hPa | 0 mm | - | 98 W/m² | - |
| 1777753478 | 7.78° C | 48% | 991.1 hPa | 0 mm | - | 104 W/m² | - |
| 1777753177 | 7.22° C | 48% | 991.2 hPa | 0 mm | - | 138 W/m² | - |
| 1777752872 | 7.22° C | 49% | 991.2 hPa | 0 mm | - | 98 W/m² | - |
| 1777752569 | 7.22° C | 47% | 991.3 hPa | 0 mm | - | 69 W/m² | - |
| 1777752265 | 7.22° C | 47% | 991.2 hPa | 0 mm | - | 81 W/m² | - |
| 1777751963 | 7.22° C | 48% | 991.4 hPa | 0 mm | - | 100 W/m² | - |
* Rain latest hour (hover to see other rain measurements)
** Current wind speed in m/s (hover to see current wind gust speed)